Location: Oteiza
(42.6167°N, 1.9500°W)
Time: 00:49:13
(UTC+01:00)

ISS - Visible Passes

Search period start: 16 December 2017 00:00
Search period end: 26 December 2017 00:00
Orbit: 402 x 406 km, 51.6° (Epoch: 16 December)

Date Brightness Start Highest point End Pass type
(mag) Time Alt. Az. Time Alt. Az. Time Alt. Az.
16 Dec -2.8 18:38:50 10° WNW 18:42:01 48° SW 18:45:11 10° SE visible
17 Dec -0.4 19:24:48 10° WSW 19:25:49 11° SW 19:26:49 10° SSW visible
18 Dec -0.9 18:31:15 10° W 18:33:47 21° SW 18:36:18 10° S visible
25 Dec -0.6 07:34:48 10° S 07:36:46 15° SE 07:38:44 10° E visible
